KI5NYZ Weather Reports


Display with metric or nautical units.
time (UTC)temp
F
wind
direction
speed
MPH
gust
MPH
rain 1hr
in
rain 24hr
in
rain mn
in
humidity
%
barometer
mb
20260505041540 73 261 7.0 12.0 0.00 0.06 0.06 26 1007.3
20260505040601 73 251 10.0 13.0 0.00 0.06 0.06 25 1007.3
20260505035520 73 246 10.0 15.0 0.00 0.06 0.06 25 1007.3
20260505034521 73 246 10.0 15.0 0.00 0.06 0.06 25 1007.3
20260505033541 73 247 9.0 14.0 0.00 0.06 0.06 24 1007.2
20260505032541 73 244 9.0 14.0 0.00 0.06 0.06 24 1007.2
20260505031522 74 242 10.0 14.0 0.00 0.06 0.06 23 1007.0
20260505030521 74 251 8.0 16.0 0.00 0.06 0.06 22 1006.8
20260505025519 75 257 7.0 12.0 0.00 0.06 0.06 22 1006.8
20260505024518 75 275 6.0 12.0 0.00 0.06 0.06 21 1006.7
20260505023519 76 270 4.0 7.0 0.00 0.06 0.06 21 1006.6
20260505022540 77 284 5.0 7.0 0.00 0.06 0.06 19 1006.5
20260505021519 78 284 7.0 9.0 0.00 0.06 0.06 19 1006.4
20260505020540 78 285 7.0 10.0 0.00 0.06 0.06 18 1006.4
20260505015522 78 288 7.0 11.0 0.00 0.06 0.06 18 1006.3
20260505014519 79 289 6.0 8.0 0.00 0.06 0.06 18 1006.3
20260505013525 79 279 7.0 11.0 0.00 0.06 0.06 17 1006.2
20260505012520 80 276 7.0 9.0 0.00 0.06 0.06 18 1006.1
20260505011519 81 269 4.0 7.0 0.00 0.06 0.06 17 1006.1
20260505010521 82 269 8.0 12.0 0.00 0.06 0.06 16 1006.0
20260505005520 82 271 9.0 14.0 0.00 0.06 0.06 15 1006.0
20260505004640 83 268 8.0 12.0 0.00 0.06 0.06 16 1006.1
20260505003523 83 258 7.0 12.0 0.00 0.06 0.06 17 1006.2
20260505002520 84 260 7.0 13.0 0.00 0.06 0.06 17 1006.3
20260505001601 84 262 7.0 11.0 0.00 0.06 0.06 18 1006.3
20260505000523 84 264 8.0 11.0 0.00 0.06 0.06 18 1006.5
20260504235521 84 255 9.0 13.0 0.00 0.06 0.06 18 1006.4
20260504234522 85 267 10.0 15.0 0.00 0.06 0.06 18 1006.5
20260504233522 85 263 10.0 16.0 0.00 0.06 0.06 18 1006.6
20260504232522 84 264 11.0 15.0 0.00 0.06 0.06 17 1006.7
20260504231522 84 264 10.0 14.0 0.00 0.06 0.06 18 1006.8
20260504230519 83 269 12.0 17.0 0.01 0.06 0.06 19 1007.0
20260504225548 83 256 11.0 17.0 0.01 0.06 0.06 20 1007.0
20260504224519 83 252 11.0 16.0 0.02 0.06 0.06 21 1007.1
20260504223519 83 249 12.0 16.0 0.02 0.06 0.06 22 1007.1
20260504222520 83 248 11.0 17.0 0.03 0.06 0.06 22 1007.3
20260504221519 83 249 12.0 19.0 0.04 0.06 0.06 22 1007.5
20260504220523 84 252 11.0 16.0 0.04 0.06 0.06 21 1007.5
20260504215520 84 261 12.0 21.0 0.05 0.05 0.05 19 1007.6
20260504214540 84 259 13.0 23.0 0.04 0.05 0.05 19 1007.7
20260504213521 84 254 13.0 16.0 0.04 0.04 0.04 19 1007.8
20260504212520 84 271 14.0 20.0 0.03 0.03 0.03 20 1008.0
20260504211520 85 269 14.0 22.0 0.03 0.03 0.03 20 1008.1
20260504210522 85 262 12.0 19.0 0.01 0.01 0.01 19 1008.0
20260504205520 86 260 12.0 16.0 0.01 0.01 0.01 18 1007.9
20260504204524 86 248 13.0 19.0 0.00 0.00 0.00 19 1007.9
20260504203543 86 251 14.0 20.0 0.00 0.00 0.00 20 1008.0
20260504202601 87 243 12.0 18.0 0.00 0.00 0.00 23 1008.2
20260504201522 87 247 12.0 18.0 0.00 0.00 0.00 22 1008.3
20260504200558 86 254 10.0 14.0 0.00 0.00 0.00 22 1008.5
20260504195518 87 248 10.0 13.0 0.00 0.00 0.00 24 1008.8
20260504194519 86 259 11.0 16.0 0.00 0.01 0.00 22 1008.9
20260504193519 87 261 9.0 14.0 0.00 0.01 0.00 22 1009.0
20260504192519 87 267 12.0 17.0 0.00 0.01 0.00 22 1009.1
20260504191519 86 246 12.0 19.0 0.00 0.01 0.00 23 1009.2
20260504190520 86 266 11.0 19.0 0.00 0.01 0.00 23 1009.2
20260504185545 86 263 9.0 15.0 0.00 0.01 0.00 23 1009.3
20260504184521 86 258 9.0 13.0 0.00 0.01 0.00 24 1009.4
20260504183519 86 252 6.0 11.0 0.00 0.01 0.00 24 1009.5
20260504182520 86 257 8.0 12.0 0.00 0.01 0.00 25 1009.5
20260504181521 86 256 6.0 13.0 0.00 0.01 0.00 26 1009.7
20260504180541 86 259 9.0 12.0 0.00 0.01 0.00 26 1010.0
20260504175521 85 269 9.0 15.0 0.00 0.01 0.00 25 1010.2
20260504174522 85 269 8.0 13.0 0.00 0.01 0.00 27 1010.3
20260504173541 84 278 6.0 9.0 0.00 0.01 0.00 28 1010.6
20260504172521 83 269 7.0 11.0 0.00 0.01 0.00 31 1010.8
20260504171523 82 265 7.0 12.0 0.00 0.01 0.00 33 1010.9
20260504170522 81 260 8.0 13.0 0.00 0.01 0.00 35 1011.1
20260504150641 66 250 7.0 13.0 0.00 0.01 0.00 60 1011.9
20260504140528 61 247 7.0 9.0 0.00 0.01 0.00 70 1011.8
20260504130520 55 228 2.0 4.0 0.00 0.01 0.00 83 1011.1
20260504110522 53 230 2.0 5.0 0.00 0.01 0.00 84 1010.6
20260504100519 55 224 3.0 4.0 0.00 0.01 0.00 79 1011.0
20260504081521 57 206 1.0 4.0 0.00 0.01 0.00 74 1012.2
20260504080540 57 201 2.0 4.0 0.00 0.01 0.00 73 1012.1
20260504050523 63 204 4.0 7.0 0.00 0.01 0.00 55 1013.8
20260504045522 63 205 4.0 9.0 0.00 0.01 0.01 54 1013.9
20260504044522 63 204 5.0 8.0 0.00 0.01 0.01 53 1014.1
20260504043520 64 204 4.0 8.0 0.00 0.01 0.01 53 1014.2
20260504042521 64 206 4.0 8.0 0.00 0.01 0.01 53 1014.2